Вернуться в каталог

STARLINK-5099

АктивенСвязьVLEO
NORAD 54009·PAYLOAD·🇺🇸 United States

Запущен Oct 5, 2022 с Vandenberg Space Force Base

Loading…

Ближайшие Пролёты (ближайшие 24 часа)

TLE

СвежийSource: CelesTrak SupGP

Эпоха: Sep 15, 2026, 01:44 UTC

1 54009C 22125AX  26258.07270833 -.00012003  00000+0 -35440-3 0  2587
2 54009  53.1592  77.2311 0001125  78.2055 144.1653 15.34417252    11

Отслеживайте STARLINK-5099 в реальном времени с AllMySat

Download on the App Store